This demonstration page uses our WeatherBlox Daily Observations layout. Learn more.

40.92945, -100.16068

Hourly Observations for December 12, 2017

Temp ( °F °C ) Dew Point ( °F °C ) Humidity (%) Winds ( mph kmh ) Pressure ( in mb ) Visibility ( mi km ) Precip ( " mm )
12:15 am 00:15 Partly Cloudy 36 2.3 27 -2.8 69 69 NNW 10 17 30.48 1032 10 16.09344 0 0
12:35 am 00:35 Partly Cloudy 30 -1.3 23 -4.8 77 77 NW 7 11 30.5 1033 10 16.09344 0 0
12:55 am 00:55 Mostly Cloudy 29 -1.7 24 -4.7 80 80 WNW 9 15 30.5 1033 10 16.09344 0 0
1:15 am 01:15 Mostly Cloudy 29 -1.9 23 -4.9 80 80 NW 8 13 30.53 1034 10 16.09344 0 0
1:35 am 01:35 Partly Cloudy 27 -3 22 -5.5 83 83 WNW 8 13 30.53 1034 10 16.09344 0 0
1:55 am 01:55 Clear 25 -3.8 21 -6 85 85 W 9 15 30.53 1034 10 16.09344 0 0
2:15 am 02:15 Clear 24 -4.4 21 -6.3 87 87 W 9 15 30.53 1034 10 16.09344 0 0
2:35 am 02:35 Clear 24 -4.4 20 -6.5 85 85 W 9 15 30.53 1034 10 16.09344 0 0
2:55 am 02:55 Clear 23 -5 20 -6.7 88 88 W 9 15 30.56 1035 10 16.09344 0 0
3:15 am 03:15 Clear 22 -5.4 19 -7.1 88 88 W 9 15 30.56 1035 10 16.09344 0 0
3:35 am 03:35 Clear 23 -5.1 20 -6.8 88 88 W 9 15 30.56 1035 10 16.09344 0 0
3:55 am 03:55 Clear 23 -5.1 19 -7 87 87 W 9 15 30.53 1034 10 16.09344 0 0
4:15 am 04:15 Clear 24 -4.6 20 -6.5 87 87 WNW 8 13 30.5 1033 10 16.09344 0 0
4:35 am 04:35 Clear 23 -5.2 19 -7 87 87 WNW 10 17 30.53 1034 10 16.09344 0 0
4:55 am 04:55 Clear 23 -5 20 -6.9 87 87 WNW 10 17 30.53 1034 10 16.09344 0 0
5:15 am 05:15 Clear 23 -5.1 19 -7 87 87 WNW 7 11 30.53 1034 10 16.09344 0 0
5:35 am 05:35 Clear 22 -5.5 19 -7.3 87 87 WNW 8 13 30.5 1033 10 16.09344 0 0
5:55 am 05:55 Clear 21 -6 18 -7.7 88 88 NW 6 9 30.5 1033 10 16.09344 0 0
6:15 am 06:15 Clear 21 -5.9 18 -7.7 87 87 NW 7 11 30.5 1033 10 16.09344 0 0
6:35 am 06:35 Clear 19 -7 16 -8.7 88 88 NW 5 7 30.5 1033 10 16.09344 0 0
6:55 am 06:55 Clear 21 -6.3 17 -8.2 87 87 W 5 7 30.5 1033 10 16.09344 0 0
7:15 am 07:15 Clear 19 -7 16 -8.8 87 87 W 5 7 30.5 1033 10 16.09344 0 0
7:35 am 07:35 Clear 20 -6.7 17 -8.5 87 87 W 3 6 30.5 1033 10 16.09344 0 0
7:55 am 07:55 Sunny 21 -6.3 18 -8 88 88 WNW 3 6 30.48 1032 10 16.09344 0 0
8:15 am 08:15 Sunny 20 -6.5 17 -8.5 86 86 NW 6 9 30.48 1032 10 16.09344 0 0
8:35 am 08:35 Sunny 22 -5.8 18 -7.8 86 86 WNW 5 7 30.48 1032 10 16.09344 0 0
8:55 am 08:55 Sunny 23 -5.2 19 -7.3 85 85 WNW 5 7 30.45 1031 10 16.09344 0 0
9:15 am 09:15 Sunny 25 -4 21 -6.2 85 85 WNW 5 7 30.45 1031 10 16.09344 0 0
9:35 am 09:35 Sunny 26 -3.2 21 -5.9 82 82 WNW 3 6 30.42 1030 10 16.09344 0 0
9:55 am 09:55 Sunny 28 -2.2 23 -5.1 81 81 WSW 3 6 30.39 1029 10 16.09344 0 0
10:15 am 10:15 Sunny 31 -0.4 25 -3.9 78 78 W 9 15 30.39 1029 10 16.09344 0 0
10:35 am 10:35 Sunny 34 1.3 26 -3.6 70 70 W 6 9 30.36 1028 10 16.09344 0 0
10:55 am 10:55 Sunny 37 2.8 24 -4.6 59 59 W 8 13 30.3 1026 10 16.09344 0 0
11:15 am 11:15 Sunny 39 3.9 23 -5.2 52 52 WNW 9 15 30.3 1026 10 16.09344 0 0
11:35 am 11:35 Sunny 40 4.5 22 -5.3 49 49 W 9 15 30.3 1026 10 16.09344 0 0
11:55 am 11:55 Sunny 42 5.5 22 -5.3 46 46 WNW 8 13 30.24 1024 10 16.09344 0 0
12:15 pm 12:15 Sunny 44 6.6 22 -5.5 42 42 WNW 9 15 30.24 1024 10 16.09344 0 0
12:35 pm 12:35 Sunny 45 7.1 22 -5.6 40 40 WNW 5 7 30.21 1023 10 16.09344 0 0
12:55 pm 12:55 Sunny 46 8 21 -6 37 37 W 7 11 30.21 1023 10 16.09344 0 0
1:15 pm 13:15 Sunny 48 9 21 -6.3 34 34 W 7 11 30.15 1021 10 16.09344 0 0
1:35 pm 13:35 Sunny 50 10 19 -7 30 30 WSW 5 7 30.15 1021 10 16.09344 0 0
1:55 pm 13:55 Sunny 51 10.7 18 -8 26 26 W 7 11 30.12 1020 10 16.09344 0 0
2:15 pm 14:15 Sunny 53 11.5 19 -7.4 26 26 W 9 15 30.09 1019 10 16.09344 0 0
2:35 pm 14:35 Sunny 53 11.8 20 -6.9 27 27 W 8 13 30.06 1018 10 16.09344 0 0
2:55 pm 14:55 Sunny 54 12.2 20 -6.6 27 27 W 6 9 30.06 1018 10 16.09344 0 0
3:15 pm 15:15 Sunny 55 13 20 -6.4 26 26 WSW 5 7 30.03 1017 10 16.09344 0 0
3:35 pm 15:35 Sunny 56 13.5 21 -6.1 25 25 WSW 6 9 30 1016 10 16.09344 0 0
3:55 pm 15:55 Sunny 57 13.7 20 -6.4 24 24 WSW 8 13 30 1016 10 16.09344 0 0
4:15 pm 16:15 Sunny 56 13.1 21 -6.2 26 26 SW 6 9 30.03 1017 10 16.09344 0 0
4:35 pm 16:35 Sunny 54 12.1 21 -6 28 28 SSW 8 13 30.03 1017 10 16.09344 0 0
4:55 pm 16:55 Sunny 51 10.8 20 -6.5 29 29 SSW 7 11 30.03 1017 10 16.09344 0 0
5:15 pm 17:15 Clear 47 8.5 20 -6.7 34 34 SSW 8 13 30.03 1017 10 16.09344 0 0
5:35 pm 17:35 Clear 45 7 20 -6.7 37 37 SSW 7 11 30.03 1017 10 16.09344 0 0
5:55 pm 17:55 Clear 42 5.8 20 -6.7 41 41 S 7 11 30.06 1018 10 16.09344 0 0
6:15 pm 18:15 Clear 42 5.7 21 -6.3 42 42 SSW 8 13 30.03 1017 10 16.09344 0 0
6:35 pm 18:35 Clear 44 6.9 21 -6 40 40 SW 7 11 30 1016 10 16.09344 0 0
6:55 pm 18:55 Clear 44 6.5 21 -6.1 40 40 SW 5 7 30 1016 10 16.09344 0 0
7:15 pm 19:15 Clear 45 7.4 21 -6 38 38 SW 6 9 30 1016 10 16.09344 0 0
7:35 pm 19:35 Clear 43 6.2 21 -6 42 42 Calm 29.97 1015 10 16.09344 0 0
7:55 pm 19:55 Clear 38 3.3 20 -6.5 49 49 N 5 7 30 1016 10 16.09344 0 0
8:15 pm 20:15 Clear 36 2 21 -6.3 55 55 Calm 30.03 1017 10 16.09344 0 0
8:35 pm 20:35 Clear 35 1.6 20 -6.7 54 54 Calm 30 1016 10 16.09344 0 0
8:55 pm 20:55 Clear 34 1.3 20 -6.6 56 56 NNE 3 6 30 1016 10 16.09344 0 0
9:15 pm 21:15 Clear 34 1.1 20 -6.5 57 57 Calm 30 1016 10 16.09344 0 0
9:35 pm 21:35 Clear 33 0.3 20 -6.7 60 60 Calm 29.97 1015 10 16.09344 0 0
9:55 pm 21:55 Clear 33 0.3 21 -6.2 62 62 NW 3 6 29.97 1015 10 16.09344 0 0
10:15 pm 22:15 Clear 30 -1.1 20 -6.7 66 66 N 5 7 30 1016 10 16.09344 0 0
10:35 pm 22:35 Clear 31 -0.5 20 -6.7 63 63 NW 9 15 29.94 1014 10 16.09344 0 0
10:55 pm 22:55 Clear 33 0.3 21 -6.3 62 62 WNW 10 17 29.94 1014 10 16.09344 0 0
11:15 pm 23:15 Clear 32 0.1 21 -6.2 63 63 WNW 10 17 29.94 1014 10 16.09344 0 0
11:35 pm 23:35 Clear 32 0.1 20 -6.6 61 61 NW 9 15 29.94 1014 10 16.09344 0 0
11:55 pm 23:55 Clear 30 -1.1 19 -7 65 65 NW 9 15 29.94 1014 10 16.09344 0 0

Powered by AerisWeather